| time (UTC) | temp F | wind direction | speed MPH | gust MPH | rain 1hr in | rain 24hr in | rain mn in | humidity % | barometer mb |
| 20260508225052 | 55 | 276 | 0.0 | 2.0 | 0.00 | 0.00 | 0.00 | 27 | 1011.2 |
| 20260508224553 | 55 | 289 | 0.0 | 2.0 | 0.00 | 0.00 | 0.00 | 27 | 1011.2 |
| 20260508224051 | 56 | 276 | 0.0 | 2.0 | 0.00 | 0.00 | 0.00 | 26 | 1011.2 |
| 20260508223551 | 56 | 252 | 0.0 | 3.0 | 0.00 | 0.00 | 0.00 | 25 | 1011.3 |
| 20260508222550 | 56 | 252 | 0.0 | 4.0 | 0.00 | 0.00 | 0.00 | 25 | 1011.3 |
| 20260508222051 | 56 | 260 | 0.0 | 6.0 | 0.00 | 0.00 | 0.00 | 25 | 1011.2 |
| 20260508221552 | 56 | 219 | 0.0 | 3.0 | 0.00 | 0.00 | 0.00 | 25 | 1011.2 |
| 20260508221050 | 56 | 198 | 0.0 | 3.0 | 0.00 | 0.00 | 0.00 | 26 | 1011.2 |
| 20260508220550 | 56 | 213 | 0.0 | 2.0 | 0.00 | 0.00 | 0.00 | 25 | 1011.2 |
| 20260508220050 | 56 | 226 | 0.0 | 4.0 | 0.00 | 0.00 | 0.00 | 25 | 1011.2 |
| 20260508215550 | 57 | 265 | 0.0 | 4.0 | 0.00 | 0.00 | 0.00 | 25 | 1011.2 |
| 20260508215050 | 57 | 257 | 0.0 | 4.0 | 0.00 | 0.00 | 0.00 | 25 | 1011.1 |
| 20260508214602 | 57 | 259 | 1.0 | 4.0 | 0.00 | 0.00 | 0.00 | 25 | 1011.0 |
| 20260508214050 | 57 | 273 | 0.0 | 2.0 | 0.00 | 0.00 | 0.00 | 24 | 1011.1 |
| 20260508213549 | 58 | 276 | 0.0 | 4.0 | 0.00 | 0.00 | 0.00 | 23 | 1010.9 |
| 20260508212550 | 58 | 255 | 0.0 | 4.0 | 0.00 | 0.00 | 0.00 | 22 | 1010.9 |
| 20260508212050 | 59 | 149 | 1.0 | 5.0 | 0.00 | 0.00 | 0.00 | 21 | 1010.9 |
| 20260508211549 | 59 | 236 | 2.0 | 6.0 | 0.00 | 0.00 | 0.00 | 20 | 1010.9 |
| 20260508211049 | 60 | 250 | 2.0 | 6.0 | 0.00 | 0.00 | 0.00 | 19 | 1010.9 |
| 20260508210553 | 60 | 246 | 1.0 | 6.0 | 0.00 | 0.00 | 0.00 | 19 | 1010.9 |
| 20260508210053 | 60 | 281 | 1.0 | 9.0 | 0.00 | 0.00 | 0.00 | 19 | 1011.0 |
| 20260508205551 | 61 | 248 | 2.0 | 10.0 | 0.00 | 0.00 | 0.00 | 18 | 1010.8 |
| 20260508205049 | 61 | 277 | 1.0 | 10.0 | 0.00 | 0.00 | 0.00 | 17 | 1010.8 |
| 20260508204551 | 61 | 239 | 1.0 | 11.0 | 0.00 | 0.00 | 0.00 | 17 | 1010.7 |
| 20260508204048 | 61 | 224 | 2.0 | 8.0 | 0.00 | 0.00 | 0.00 | 17 | 1010.7 |
| 20260508203552 | 61 | 201 | 2.0 | 10.0 | 0.00 | 0.00 | 0.00 | 16 | 1010.7 |
| 20260508202550 | 62 | 258 | 6.0 | 10.0 | 0.00 | 0.00 | 0.00 | 16 | 1010.8 |
| 20260508202049 | 62 | 153 | 3.0 | 11.0 | 0.00 | 0.00 | 0.00 | 17 | 1010.8 |
| 20260508201549 | 62 | 255 | 6.0 | 11.0 | 0.00 | 0.00 | 0.00 | 16 | 1010.7 |
| 20260508201050 | 62 | 254 | 5.0 | 12.0 | 0.00 | 0.00 | 0.00 | 16 | 1010.7 |
| 20260508200549 | 62 | 266 | 2.0 | 12.0 | 0.00 | 0.00 | 0.00 | 17 | 1010.7 |
| 20260508200049 | 62 | 217 | 4.0 | 11.0 | 0.00 | 0.00 | 0.00 | 16 | 1010.7 |
| 20260508195548 | 62 | 261 | 4.0 | 13.0 | 0.00 | 0.00 | 0.00 | 16 | 1010.7 |
| 20260508195048 | 62 | 299 | 4.0 | 13.0 | 0.00 | 0.00 | 0.00 | 16 | 1010.6 |
| 20260508194548 | 62 | 255 | 5.0 | 11.0 | 0.00 | 0.00 | 0.00 | 15 | 1010.6 |
| 20260508194047 | 62 | 262 | 5.0 | 17.0 | 0.00 | 0.00 | 0.00 | 15 | 1010.5 |
| 20260508193547 | 62 | 264 | 5.0 | 18.0 | 0.00 | 0.00 | 0.00 | 14 | 1010.6 |
| 20260508192546 | 62 | 283 | 5.0 | 18.0 | 0.00 | 0.00 | 0.00 | 14 | 1010.5 |
| 20260508192047 | 62 | 236 | 3.0 | 14.0 | 0.00 | 0.00 | 0.00 | 15 | 1010.6 |
| 20260508191551 | 62 | 269 | 4.0 | 15.0 | 0.00 | 0.00 | 0.00 | 15 | 1010.7 |
| 20260508191047 | 62 | 244 | 6.0 | 15.0 | 0.00 | 0.00 | 0.00 | 14 | 1010.8 |
| 20260508190545 | 62 | 259 | 6.0 | 14.0 | 0.00 | 0.00 | 0.00 | 14 | 1011.0 |
| 20260508185548 | 62 | 262 | 6.0 | 11.0 | 0.00 | 0.00 | 0.00 | 14 | 1011.3 |
| 20260508185044 | 62 | 141 | 5.0 | 11.0 | 0.00 | 0.00 | 0.00 | 14 | 1011.2 |
| 20260508184543 | 62 | 151 | 4.0 | 19.0 | 0.00 | 0.00 | 0.00 | 14 | 1011.3 |
| 20260508184043 | 61 | 243 | 3.0 | 16.0 | 0.00 | 0.00 | 0.00 | 14 | 1011.2 |
| 20260508183542 | 61 | 288 | 6.0 | 15.0 | 0.00 | 0.00 | 0.00 | 13 | 1011.4 |
| 20260508182543 | 61 | 255 | 6.0 | 12.0 | 0.00 | 0.00 | 0.00 | 13 | 1011.5 |
| 20260508182043 | 61 | 252 | 5.0 | 15.0 | 0.00 | 0.00 | 0.00 | 13 | 1011.5 |
| 20260508181542 | 61 | 243 | 8.0 | 15.0 | 0.00 | 0.00 | 0.00 | 12 | 1011.7 |
| 20260508181045 | 61 | 239 | 5.0 | 16.0 | 0.00 | 0.00 | 0.00 | 13 | 1011.5 |
| 20260508180545 | 61 | 251 | 5.0 | 16.0 | 0.00 | 0.00 | 0.00 | 13 | 1011.7 |
| 20260508180056 | 61 | 311 | 5.0 | 17.0 | 0.00 | 0.00 | 0.00 | 13 | 1011.7 |
| 20260508175542 | 61 | 257 | 7.0 | 17.0 | 0.00 | 0.00 | 0.00 | 12 | 1011.8 |
| 20260508175042 | 61 | 262 | 4.0 | 15.0 | 0.00 | 0.00 | 0.00 | 13 | 1012.0 |
| 20260508174553 | 61 | 248 | 4.0 | 15.0 | 0.00 | 0.00 | 0.00 | 14 | 1011.9 |
| 20260508174039 | 60 | 263 | 4.0 | 13.0 | 0.00 | 0.00 | 0.00 | 15 | 1012.0 |
| 20260508173539 | 60 | 293 | 8.0 | 15.0 | 0.00 | 0.00 | 0.00 | 15 | 1012.0 |
| 20260508172538 | 60 | 287 | 4.0 | 13.0 | 0.00 | 0.00 | 0.00 | 15 | 1012.2 |
| 20260508172039 | 60 | 241 | 4.0 | 18.0 | 0.00 | 0.00 | 0.00 | 16 | 1012.4 |
| 20260508171536 | 59 | 224 | 5.0 | 16.0 | 0.00 | 0.00 | 0.00 | 16 | 1012.5 |
| 20260508171035 | 59 | 267 | 7.0 | 16.0 | 0.00 | 0.00 | 0.00 | 17 | 1012.6 |
| 20260508170535 | 59 | 250 | 6.0 | 16.0 | 0.00 | 0.00 | 0.00 | 18 | 1012.6 |
| 20260508170038 | 59 | 276 | 6.0 | 15.0 | 0.00 | 0.00 | 0.00 | 18 | 1012.7 |
| 20260508165535 | 59 | 224 | 7.0 | 14.0 | 0.00 | 0.00 | 0.00 | 18 | 1012.8 |
| 20260508165034 | 59 | 150 | 6.0 | 14.0 | 0.00 | 0.00 | 0.00 | 18 | 1013.0 |
| 20260508164544 | 59 | 285 | 5.0 | 18.0 | 0.00 | 0.00 | 0.00 | 18 | 1013.1 |
| 20260508164035 | 58 | 227 | 5.0 | 18.0 | 0.00 | 0.00 | 0.00 | 18 | 1013.3 |
| 20260508163537 | 59 | 168 | 7.0 | 17.0 | 0.00 | 0.00 | 0.00 | 18 | 1013.2 |
| 20260508162515 | 59 | 272 | 3.0 | 12.0 | 0.00 | 0.00 | 0.00 | 19 | 1013.3 |
| 20260508162014 | 59 | 256 | 4.0 | 18.0 | 0.00 | 0.00 | 0.00 | 18 | 1013.3 |
| 20260508161513 | 58 | 233 | 4.0 | 18.0 | 0.00 | 0.00 | 0.00 | 18 | 1013.4 |
| 20260508161012 | 58 | 161 | 4.0 | 12.0 | 0.00 | 0.00 | 0.00 | 18 | 1013.6 |
| 20260508160510 | 58 | 187 | 4.0 | 17.0 | 0.00 | 0.00 | 0.00 | 19 | 1013.5 |
| 20260508160036 | 57 | 221 | 8.0 | 17.0 | 0.00 | 0.09 | 0.00 | 19 | 1013.7 |
| 20260508155503 | 57 | 222 | 6.0 | 14.0 | 0.00 | 0.09 | 0.00 | 19 | 1013.8 |
| 20260508155003 | 57 | 284 | 5.0 | 16.0 | 0.00 | 0.09 | 0.00 | 20 | 1013.8 |
| 20260508154502 | 57 | 267 | 7.0 | 16.0 | 0.00 | 0.09 | 0.00 | 20 | 1013.9 |
| 20260508154003 | 57 | 153 | 5.0 | 17.0 | 0.00 | 0.09 | 0.00 | 21 | 1013.9 |
| 20260508153503 | 57 | 271 | 7.0 | 17.0 | 0.00 | 0.09 | 0.00 | 20 | 1013.9 |
| 20260508153004 | 57 | 269 | 7.0 | 15.0 | 0.00 | 0.09 | 0.00 | 20 | 1014.0 |
| 20260508152502 | 57 | 240 | 6.0 | 16.0 | 0.00 | 0.09 | 0.00 | 21 | 1014.0 |
| 20260508152100 | 57 | 258 | 7.0 | 16.0 | 0.00 | 0.09 | 0.00 | 21 | 1014.0 |
| 20260508152003 | 57 | 215 | 7.0 | 15.0 | 0.00 | 0.09 | 0.00 | 21 | 1014.1 |
| 20260508151602 | 57 | 182 | 6.0 | 15.0 | 0.00 | 0.09 | 0.00 | 22 | 1014.1 |
| 20260508151059 | 56 | 179 | 4.0 | 15.0 | 0.00 | 0.09 | 0.00 | 23 | 1014.3 |
| 20260508150557 | 56 | 246 | 8.0 | 18.0 | 0.00 | 0.09 | 0.00 | 23 | 1014.4 |
| 20260508150057 | 55 | 175 | 5.0 | 19.0 | 0.00 | 0.10 | 0.00 | 23 | 1014.5 |
| 20260508145556 | 55 | 244 | 6.0 | 19.0 | 0.00 | 0.10 | 0.00 | 23 | 1014.5 |
| 20260508145056 | 55 | 251 | 6.0 | 14.0 | 0.00 | 0.10 | 0.00 | 23 | 1014.5 |
| 20260508144559 | 55 | 291 | 6.0 | 13.0 | 0.00 | 0.10 | 0.00 | 24 | 1014.6 |
| 20260508144054 | 55 | 158 | 6.0 | 16.0 | 0.00 | 0.10 | 0.00 | 24 | 1014.7 |
| 20260508143554 | 55 | 255 | 3.0 | 17.0 | 0.00 | 0.10 | 0.00 | 26 | 1014.6 |
| 20260508143057 | 54 | 326 | 5.0 | 17.0 | 0.00 | 0.10 | 0.00 | 26 | 1014.6 |
| 20260508142553 | 54 | 205 | 5.0 | 20.0 | 0.00 | 0.10 | 0.00 | 25 | 1014.8 |
| 20260508142050 | 54 | 272 | 6.0 | 20.0 | 0.00 | 0.10 | 0.00 | 26 | 1014.9 |
| 20260508141601 | 54 | 220 | 5.0 | 16.0 | 0.00 | 0.10 | 0.00 | 26 | 1014.9 |
| 20260508141049 | 54 | 283 | 6.0 | 16.0 | 0.00 | 0.10 | 0.00 | 26 | 1014.8 |
| 20260508140548 | 54 | 252 | 7.0 | 13.0 | 0.00 | 0.10 | 0.00 | 26 | 1014.9 |
| 20260508140047 | 53 | 255 | 5.0 | 16.0 | 0.00 | 0.14 | 0.00 | 27 | 1015.0 |
| 20260508135548 | 53 | 278 | 4.0 | 16.0 | 0.00 | 0.14 | 0.00 | 28 | 1015.0 |
| 20260508135048 | 53 | 248 | 5.0 | 16.0 | 0.00 | 0.14 | 0.00 | 28 | 1014.9 |
| 20260508134550 | 53 | 262 | 6.0 | 17.0 | 0.00 | 0.14 | 0.00 | 28 | 1015.1 |
| 20260508134045 | 53 | 231 | 6.0 | 17.0 | 0.00 | 0.14 | 0.00 | 28 | 1014.9 |
| 20260508133544 | 52 | 150 | 4.0 | 18.0 | 0.00 | 0.14 | 0.00 | 29 | 1014.9 |
| 20260508133201 | 52 | 248 | 6.0 | 18.0 | 0.00 | 0.14 | 0.00 | 28 | 1014.9 |
| 20260508132541 | 52 | 229 | 5.0 | 20.0 | 0.00 | 0.14 | 0.00 | 30 | 1014.8 |
| 20260508132040 | 52 | 226 | 5.0 | 20.0 | 0.00 | 0.14 | 0.00 | 32 | 1014.9 |
| 20260508131546 | 51 | 257 | 4.0 | 13.0 | 0.00 | 0.14 | 0.00 | 32 | 1014.7 |
| 20260508131041 | 51 | 282 | 4.0 | 13.0 | 0.00 | 0.14 | 0.00 | 32 | 1014.8 |
| 20260508130540 | 51 | 232 | 4.0 | 11.0 | 0.00 | 0.14 | 0.00 | 32 | 1014.8 |
| 20260508130040 | 51 | 204 | 2.0 | 14.0 | 0.00 | 0.14 | 0.00 | 34 | 1014.6 |
| 20260508125537 | 51 | 258 | 2.0 | 14.0 | 0.00 | 0.14 | 0.00 | 34 | 1014.6 |
| 20260508125035 | 50 | 262 | 4.0 | 10.0 | 0.00 | 0.14 | 0.00 | 35 | 1014.5 |
| 20260508124538 | 50 | 225 | 2.0 | 12.0 | 0.00 | 0.14 | 0.00 | 36 | 1014.5 |
| 20260508124036 | 50 | 209 | 3.0 | 11.0 | 0.00 | 0.14 | 0.00 | 36 | 1014.6 |
| 20260508123534 | 50 | 261 | 2.0 | 11.0 | 0.00 | 0.14 | 0.00 | 37 | 1014.7 |
| 20260508123034 | 49 | 278 | 2.0 | 11.0 | 0.00 | 0.14 | 0.00 | 37 | 1014.6 |
| 20260508122534 | 49 | 256 | 2.0 | 9.0 | 0.00 | 0.14 | 0.00 | 38 | 1014.6 |
| 20260508122033 | 49 | 242 | 3.0 | 7.0 | 0.00 | 0.14 | 0.00 | 37 | 1014.6 |
| 20260508121533 | 48 | 164 | 1.0 | 12.0 | 0.00 | 0.14 | 0.00 | 38 | 1014.5 |
| 20260508121031 | 48 | 254 | 3.0 | 12.0 | 0.00 | 0.14 | 0.00 | 38 | 1014.5 |
| 20260508120531 | 47 | 156 | 3.0 | 11.0 | 0.00 | 0.14 | 0.00 | 40 | 1014.4 |
| 20260508120030 | 47 | 276 | 4.0 | 9.0 | 0.00 | 0.14 | 0.00 | 40 | 1014.3 |
| 20260508115529 | 47 | 239 | 3.0 | 9.0 | 0.00 | 0.14 | 0.00 | 41 | 1014.3 |
| 20260508115028 | 47 | 269 | 2.0 | 9.0 | 0.00 | 0.14 | 0.00 | 41 | 1014.3 |
| 20260508114527 | 46 | 248 | 5.0 | 9.0 | 0.00 | 0.14 | 0.00 | 40 | 1014.1 |
| 20260508114027 | 46 | 218 | 3.0 | 9.0 | 0.00 | 0.14 | 0.00 | 41 | 1014.0 |
| 20260508113529 | 46 | 220 | 4.0 | 9.0 | 0.00 | 0.14 | 0.00 | 40 | 1014.0 |
| 20260508113026 | 46 | 256 | 2.0 | 9.0 | 0.00 | 0.14 | 0.00 | 40 | 1014.0 |
| 20260508112527 | 46 | 264 | 2.0 | 9.0 | 0.00 | 0.14 | 0.00 | 40 | 1014.0 |
| 20260508112025 | 46 | 232 | 3.0 | 9.0 | 0.00 | 0.14 | 0.00 | 39 | 1014.1 |
| 20260508111523 | 46 | 278 | 5.0 | 9.0 | 0.00 | 0.14 | 0.00 | 39 | 1013.9 |
| 20260508111024 | 46 | 182 | 4.0 | 12.0 | 0.00 | 0.14 | 0.00 | 39 | 1013.8 |
| 20260508110520 | 46 | 248 | 2.0 | 8.0 | 0.00 | 0.14 | 0.00 | 39 | 1013.7 |
| 20260508110020 | 46 | 284 | 0.0 | 11.0 | 0.00 | 0.14 | 0.00 | 38 | 1013.4 |
| 20260508105521 | 46 | 158 | 1.0 | 11.0 | 0.00 | 0.14 | 0.00 | 38 | 1013.3 |
| 20260508105021 | 47 | 230 | 3.0 | 12.0 | 0.00 | 0.14 | 0.00 | 37 | 1013.0 |
| 20260508104519 | 47 | 175 | 5.0 | 12.0 | 0.00 | 0.14 | 0.00 | 37 | 1013.1 |
| 20260508104019 | 47 | 253 | 4.0 | 13.0 | 0.00 | 0.14 | 0.00 | 37 | 1013.0 |
| 20260508103517 | 47 | 142 | 2.0 | 10.0 | 0.00 | 0.14 | 0.00 | 38 | 1012.9 |
| 20260508103021 | 47 | 295 | 2.0 | 11.0 | 0.00 | 0.14 | 0.00 | 38 | 1012.8 |
| 20260508102518 | 47 | 165 | 4.0 | 15.0 | 0.00 | 0.14 | 0.00 | 37 | 1012.7 |
| 20260508102014 | 47 | 257 | 2.0 | 13.0 | 0.00 | 0.14 | 0.00 | 37 | 1012.8 |
| 20260508101515 | 47 | 232 | 3.0 | 14.0 | 0.00 | 0.14 | 0.00 | 37 | 1012.6 |
| 20260508101013 | 47 | 217 | 3.0 | 14.0 | 0.00 | 0.14 | 0.00 | 37 | 1012.3 |
| 20260508100512 | 47 | 168 | 4.0 | 12.0 | 0.00 | 0.14 | 0.00 | 37 | 1012.3 |
| 20260508100010 | 47 | 234 | 5.0 | 12.0 | 0.00 | 0.14 | 0.00 | 38 | 1012.1 |
| 20260508095512 | 47 | 185 | 5.0 | 12.0 | 0.00 | 0.14 | 0.00 | 38 | 1012.0 |
| 20260508095008 | 47 | 6 | 4.0 | 14.0 | 0.00 | 0.14 | 0.00 | 38 | 1012.0 |
| 20260508094509 | 47 | 148 | 3.0 | 14.0 | 0.00 | 0.14 | 0.00 | 38 | 1011.8 |
| 20260508094009 | 47 | 216 | 5.0 | 13.0 | 0.00 | 0.14 | 0.00 | 38 | 1012.0 |
| 20260508093506 | 47 | 246 | 5.0 | 15.0 | 0.00 | 0.14 | 0.00 | 38 | 1011.8 |
| 20260508093007 | 47 | 246 | 6.0 | 15.0 | 0.00 | 0.14 | 0.00 | 38 | 1011.8 |
| 20260508092505 | 47 | 196 | 2.0 | 15.0 | 0.00 | 0.14 | 0.00 | 38 | 1011.8 |
| 20260508092007 | 47 | 266 | 6.0 | 14.0 | 0.00 | 0.14 | 0.00 | 38 | 1011.7 |
| 20260508091510 | 47 | 205 | 7.0 | 14.0 | 0.00 | 0.14 | 0.00 | 38 | 1011.6 |
| 20260508091003 | 47 | 201 | 7.0 | 14.0 | 0.00 | 0.14 | 0.00 | 38 | 1011.5 |
| 20260508090502 | 48 | 191 | 5.0 | 16.0 | 0.00 | 0.14 | 0.00 | 38 | 1011.5 |
| 20260508090008 | 48 | 243 | 5.0 | 19.0 | 0.00 | 0.25 | 0.00 | 37 | 1011.4 |
| 20260508085507 | 48 | 193 | 5.0 | 19.0 | 0.00 | 0.25 | 0.00 | 37 | 1011.3 |
| 20260508085003 | 48 | 198 | 6.0 | 14.0 | 0.00 | 0.25 | 0.00 | 38 | 1011.3 |
| 20260508084503 | 48 | 253 | 5.0 | 16.0 | 0.00 | 0.25 | 0.00 | 38 | 1011.2 |
| 20260508084002 | 48 | 180 | 5.0 | 16.0 | 0.00 | 0.25 | 0.00 | 38 | 1011.2 |
| 20260508083503 | 48 | 183 | 5.0 | 15.0 | 0.00 | 0.25 | 0.00 | 37 | 1011.1 |
| 20260508083002 | 48 | 213 | 6.0 | 12.0 | 0.00 | 0.25 | 0.00 | 37 | 1010.9 |
| 20260508082505 | 48 | 163 | 7.0 | 13.0 | 0.00 | 0.25 | 0.00 | 37 | 1010.9 |
| 20260508082004 | 48 | 243 | 4.0 | 16.0 | 0.00 | 0.25 | 0.00 | 38 | 1011.0 |
| 20260508081504 | 47 | 266 | 6.0 | 16.0 | 0.00 | 0.25 | 0.00 | 39 | 1011.0 |
| 20260508081101 | 47 | 164 | 5.0 | 14.0 | 0.00 | 0.25 | 0.00 | 39 | 1010.9 |
| 20260508080500 | 47 | 300 | 6.0 | 19.0 | 0.00 | 0.25 | 0.00 | 40 | 1010.9 |
| 20260508080106 | 47 | 146 | 3.0 | 13.0 | 0.00 | 0.26 | 0.00 | 41 | 1010.7 |
| 20260508075058 | 47 | 177 | 6.0 | 13.0 | 0.00 | 0.26 | 0.00 | 40 | 1010.6 |
| 20260508074558 | 47 | 156 | 6.0 | 14.0 | 0.00 | 0.26 | 0.00 | 39 | 1010.5 |
| 20260508074058 | 48 | 233 | 5.0 | 17.0 | 0.00 | 0.26 | 0.00 | 39 | 1010.4 |
| 20260508073556 | 48 | 174 | 5.0 | 16.0 | 0.00 | 0.26 | 0.00 | 39 | 1010.4 |
| 20260508073055 | 48 | 213 | 7.0 | 16.0 | 0.00 | 0.26 | 0.00 | 39 | 1010.4 |
| 20260508072554 | 48 | 153 | 6.0 | 17.0 | 0.00 | 0.26 | 0.00 | 38 | 1010.6 |
| 20260508072053 | 48 | 212 | 5.0 | 17.0 | 0.00 | 0.26 | 0.00 | 38 | 1010.6 |
| 20260508071552 | 48 | 200 | 8.0 | 17.0 | 0.00 | 0.26 | 0.00 | 37 | 1010.6 |
| 20260508071052 | 48 | 172 | 7.0 | 15.0 | 0.00 | 0.26 | 0.00 | 38 | 1010.6 |
| 20260508070551 | 49 | 179 | 6.0 | 15.0 | 0.00 | 0.26 | 0.00 | 37 | 1010.4 |
| 20260508070052 | 49 | 253 | 7.0 | 22.0 | 0.00 | 0.26 | 0.00 | 37 | 1010.3 |
| 20260508065049 | 49 | 168 | 9.0 | 18.0 | 0.00 | 0.26 | 0.00 | 37 | 1010.1 |
| 20260508064548 | 49 | 169 | 7.0 | 15.0 | 0.00 | 0.26 | 0.00 | 36 | 1010.2 |
| 20260508064048 | 49 | 231 | 5.0 | 19.0 | 0.00 | 0.26 | 0.00 | 36 | 1010.2 |
| 20260508063548 | 49 | 127 | 5.0 | 15.0 | 0.00 | 0.26 | 0.00 | 36 | 1010.3 |
| 20260508063100 | 49 | 297 | 6.0 | 15.0 | 0.00 | 0.26 | 0.00 | 37 | 1010.4 |
| 20260508062551 | 49 | 177 | 5.0 | 16.0 | 0.00 | 0.26 | 0.00 | 37 | 1010.4 |
| 20260508062516 | 49 | 168 | 5.0 | 16.0 | 0.00 | 0.26 | 0.00 | 37 | 1010.3 |
| 20260508062045 | 49 | 201 | 5.0 | 16.0 | 0.00 | 0.26 | 0.00 | 37 | 1010.4 |
| 20260508061548 | 49 | 177 | 5.0 | 14.0 | 0.00 | 0.26 | 0.00 | 37 | 1010.5 |
| 20260508061045 | 48 | 134 | 5.0 | 12.0 | 0.00 | 0.26 | 0.00 | 38 | 1010.5 |
| 20260508060544 | 48 | 181 | 4.0 | 11.0 | 0.00 | 0.26 | 0.00 | 39 | 1010.5 |
| 20260508060045 | 48 | 218 | 4.0 | 12.0 | 0.00 | 0.26 | 0.00 | 40 | 1010.6 |
| 20260508055044 | 48 | 227 | 5.0 | 12.0 | 0.00 | 0.26 | 0.00 | 40 | 1010.9 |
| 20260508054544 | 48 | 164 | 1.0 | 9.0 | 0.00 | 0.26 | 0.00 | 41 | 1010.8 |
| 20260508054042 | 48 | 271 | 3.0 | 10.0 | 0.00 | 0.26 | 0.00 | 41 | 1010.9 |
| 20260508053543 | 48 | 265 | 3.0 | 10.0 | 0.00 | 0.26 | 0.00 | 41 | 1011.0 |
| 20260508053042 | 48 | 204 | 2.0 | 9.0 | 0.00 | 0.26 | 0.00 | 41 | 1011.0 |
| 20260508052541 | 48 | 286 | 3.0 | 8.0 | 0.00 | 0.26 | 0.00 | 41 | 1011.1 |
| 20260508052040 | 48 | 259 | 4.0 | 8.0 | 0.00 | 0.26 | 0.00 | 41 | 1011.3 |
| 20260508051542 | 48 | 253 | 1.0 | 11.0 | 0.00 | 0.26 | 0.00 | 41 | 1011.3 |
| 20260508051042 | 48 | 249 | 3.0 | 11.0 | 0.00 | 0.26 | 0.00 | 41 | 1011.4 |
| 20260508050540 | 48 | 208 | 2.0 | 9.0 | 0.00 | 0.26 | 0.00 | 41 | 1011.2 |
| 20260508050042 | 48 | 237 | 2.0 | 10.0 | 0.00 | 0.26 | 0.00 | 42 | 1011.3 |
| 20260508045037 | 48 | 274 | 4.0 | 9.0 | 0.00 | 0.26 | 0.00 | 41 | 1011.3 |
| 20260508044537 | 48 | 280 | 4.0 | 9.0 | 0.00 | 0.26 | 0.00 | 42 | 1011.2 |
| 20260508044040 | 48 | 281 | 4.0 | 9.0 | 0.00 | 0.26 | 0.00 | 43 | 1011.0 |
| 20260508043535 | 48 | 269 | 2.0 | 10.0 | 0.00 | 0.26 | 0.00 | 43 | 1011.2 |
| 20260508043052 | 48 | 262 | 2.0 | 7.0 | 0.00 | 0.26 | 0.00 | 43 | 1011.0 |
| 20260508042533 | 48 | 293 | 3.0 | 7.0 | 0.00 | 0.26 | 0.00 | 43 | 1010.9 |
| 20260508042035 | 49 | 281 | 1.0 | 5.0 | 0.00 | 0.26 | 0.00 | 42 | 1010.7 |
| 20260508041536 | 49 | 277 | 0.0 | 6.0 | 0.00 | 0.26 | 0.00 | 42 | 1010.4 |
| 20260508041032 | 49 | 260 | 2.0 | 6.0 | 0.00 | 0.26 | 0.00 | 41 | 1010.6 |
| 20260508040531 | 49 | 262 | 2.0 | 6.0 | 0.00 | 0.26 | 0.00 | 41 | 1010.5 |
| 20260508040036 | 50 | 224 | 2.0 | 6.0 | 0.00 | 0.26 | 0.00 | 40 | 1010.6 |
| 20260508035030 | 49 | 186 | 2.0 | 6.0 | 0.00 | 0.26 | 0.00 | 41 | 1010.5 |
| 20260508034532 | 49 | 274 | 2.0 | 8.0 | 0.00 | 0.26 | 0.00 | 41 | 1010.4 |
| 20260508034029 | 49 | 279 | 3.0 | 8.0 | 0.00 | 0.26 | 0.00 | 41 | 1010.3 |
| 20260508033528 | 49 | 295 | 2.0 | 7.0 | 0.00 | 0.26 | 0.00 | 42 | 1010.2 |
| 20260508033028 | 49 | 276 | 2.0 | 7.0 | 0.00 | 0.26 | 0.00 | 42 | 1010.2 |
| 20260508032530 | 49 | 248 | 2.0 | 7.0 | 0.00 | 0.26 | 0.00 | 43 | 1010.4 |
| 20260508032026 | 49 | 293 | 3.0 | 7.0 | 0.00 | 0.26 | 0.00 | 43 | 1010.4 |
| 20260508031524 | 49 | 267 | 2.0 | 7.0 | 0.00 | 0.26 | 0.00 | 43 | 1010.4 |
| 20260508031024 | 49 | 247 | 1.0 | 7.0 | 0.00 | 0.26 | 0.00 | 43 | 1010.4 |
| 20260508030523 | 49 | 255 | 1.0 | 7.0 | 0.00 | 0.26 | 0.00 | 43 | 1010.6 |
| 20260508030026 | 49 | 272 | 3.0 | 7.0 | 0.00 | 0.26 | 0.26 | 43 | 1010.5 |
| 20260508025025 | 50 | 260 | 2.0 | 8.0 | 0.00 | 0.26 | 0.26 | 42 | 1010.3 |
| 20260508024521 | 50 | 256 | 4.0 | 9.0 | 0.00 | 0.26 | 0.26 | 41 | 1010.2 |
| 20260508024020 | 50 | 239 | 3.0 | 9.0 | 0.00 | 0.26 | 0.26 | 41 | 1009.8 |
| 20260508023520 | 50 | 271 | 2.0 | 6.0 | 0.00 | 0.26 | 0.26 | 41 | 1009.6 |
| 20260508023018 | 50 | 224 | 1.0 | 9.0 | 0.00 | 0.26 | 0.26 | 41 | 1009.9 |
| 20260508022518 | 51 | 264 | 2.0 | 9.0 | 0.00 | 0.26 | 0.26 | 41 | 1010.1 |
| 20260508022019 | 51 | 262 | 1.0 | 10.0 | 0.00 | 0.26 | 0.26 | 41 | 1010.3 |
| 20260508021617 | 51 | 224 | 3.0 | 10.0 | 0.00 | 0.26 | 0.26 | 40 | 1010.3 |
| 20260508021019 | 51 | 256 | 3.0 | 9.0 | 0.00 | 0.26 | 0.26 | 40 | 1010.2 |
| 20260508020516 | 52 | 252 | 0.0 | 5.0 | 0.00 | 0.26 | 0.26 | 39 | 1010.0 |
| 20260508020026 | 53 | 231 | 3.0 | 7.0 | 0.00 | 0.26 | 0.26 | 36 | 1010.2 |
| 20260508015015 | 53 | 237 | 2.0 | 8.0 | 0.00 | 0.26 | 0.26 | 36 | 1010.2 |
| 20260508014514 | 53 | 234 | 3.0 | 9.0 | 0.00 | 0.26 | 0.26 | 35 | 1010.1 |
| 20260508014017 | 53 | 257 | 2.0 | 9.0 | 0.00 | 0.26 | 0.26 | 36 | 1010.2 |
| 20260508013513 | 53 | 232 | 3.0 | 9.0 | 0.00 | 0.26 | 0.26 | 36 | 1010.2 |
| 20260508013013 | 54 | 274 | 2.0 | 9.0 | 0.00 | 0.26 | 0.26 | 35 | 1010.4 |
| 20260508012517 | 54 | 258 | 4.0 | 9.0 | 0.00 | 0.26 | 0.26 | 35 | 1010.2 |
| 20260508012014 | 54 | 267 | 2.0 | 9.0 | 0.00 | 0.26 | 0.26 | 35 | 1010.1 |
| 20260508011515 | 54 | 243 | 2.0 | 9.0 | 0.00 | 0.26 | 0.26 | 35 | 1010.1 |
| 20260508011012 | 54 | 255 | 2.0 | 8.0 | 0.00 | 0.26 | 0.26 | 35 | 1010.1 |
| 20260508010512 | 54 | 283 | 1.0 | 9.0 | 0.00 | 0.26 | 0.26 | 36 | 1009.9 |
| 20260508010012 | 54 | 250 | 4.0 | 7.0 | 0.00 | 0.26 | 0.26 | 36 | 1009.9 |
| 20260508005016 | 55 | 232 | 3.0 | 10.0 | 0.00 | 0.26 | 0.26 | 35 | 1009.9 |
| 20260508004515 | 55 | 224 | 2.0 | 10.0 | 0.00 | 0.26 | 0.26 | 34 | 1009.9 |
| 20260508004014 | 55 | 200 | 3.0 | 8.0 | 0.00 | 0.26 | 0.26 | 35 | 1009.9 |
| 20260508003515 | 55 | 203 | 2.0 | 7.0 | 0.00 | 0.26 | 0.26 | 36 | 1009.8 |
| 20260508003015 | 55 | 134 | 1.0 | 10.0 | 0.00 | 0.26 | 0.26 | 36 | 1009.8 |
| 20260508002514 | 55 | 246 | 1.0 | 11.0 | 0.00 | 0.26 | 0.26 | 36 | 1009.8 |
| 20260508002014 | 55 | 260 | 1.0 | 10.0 | 0.00 | 0.26 | 0.26 | 36 | 1009.7 |
| 20260508001533 | 55 | 205 | 2.0 | 10.0 | 0.00 | 0.26 | 0.26 | 36 | 1009.7 |
| 20260508001013 | 55 | 224 | 1.0 | 9.0 | 0.00 | 0.26 | 0.26 | 36 | 1009.8 |
| 20260508000515 | 55 | 267 | 3.0 | 9.0 | 0.00 | 0.26 | 0.26 | 36 | 1009.7 |
| 20260508000013 | 55 | 269 | 2.0 | 8.0 | 0.00 | 0.26 | 0.26 | 37 | 1009.7 |
| 20260507235011 | 55 | 268 | 4.0 | 8.0 | 0.00 | 0.26 | 0.26 | 37 | 1009.7 |
| 20260507234515 | 56 | 261 | 4.0 | 8.0 | 0.00 | 0.26 | 0.26 | 37 | 1009.8 |
| 20260507234052 | 56 | 241 | 4.0 | 8.0 | 0.00 | 0.26 | 0.26 | 37 | 1009.7 |
| 20260507233511 | 56 | 233 | 1.0 | 8.0 | 0.00 | 0.26 | 0.26 | 38 | 1009.7 |
| 20260507233015 | 56 | 258 | 3.0 | 8.0 | 0.00 | 0.26 | 0.26 | 37 | 1009.7 |
| 20260507232511 | 56 | 274 | 2.0 | 8.0 | 0.00 | 0.26 | 0.26 | 38 | 1009.7 |
| 20260507232010 | 56 | 246 | 4.0 | 8.0 | 0.00 | 0.26 | 0.26 | 38 | 1009.7 |
| 20260507231510 | 56 | 281 | 2.0 | 7.0 | 0.00 | 0.26 | 0.26 | 39 | 1009.7 |
| 20260507231010 | 56 | 248 | 1.0 | 6.0 | 0.00 | 0.26 | 0.26 | 39 | 1009.7 |
| 20260507230510 | 56 | 279 | 1.0 | 5.0 | 0.00 | 0.26 | 0.26 | 39 | 1009.6 |
| 20260507230009 | 57 | 252 | 3.0 | 8.0 | 0.00 | 0.26 | 0.26 | 38 | 1009.6 |